Content
SEND FEEDBACK

Daily
Averages
Monthly
Summary
Canada

BRANTFORD, ONTARIO


Home > North America > Canada > Ontario
Elevation: 815 feet     Latitude: 43 08N     Longitude: 080 21W

WEATHER
 
SELECT A DAY
Number of Records: 129,408;   Date Range: 5/15/00 - 8/20/14
 
SHARE

PRINT THIS DATA

[ ← Previous Day ]
WEATHER ALMANAC - JULY 18, 2013
[ Next Day → ]
[ °C ]   °F
Weather ElementAverageHighLow
Temperature82.2 °F92.3 °F (4:00 pm)72.5 °F (7:00 am)
Dewpoint70.8 °F72.5 °F (9:00 am)67.8 °F (12:00 pm)
Humidity69.5 %91 % (6:00 am)43 % (2:00 pm)
Barometer30.04 in30.12 in (1:00 am)29.94 in (9:00 pm)
Wind Speed4.7 mph9.2 mph (1:00 pm)
Weather ElementAverage
Wind DirectionWSW (231.1 °)

Weather ElementTotal
Precipitation---
Cooling Degree Days17.4 (Base 65)
Growing Degree Days32.4 (Base 50)
Averaged from 27 records on July 18, 2013
WEATHER CONDITIONS BREAKOUT
WIND DIRECTION BREAKOUT
WEATHER BY HOUR - JULY 18, 2013
[ °C ]   °F
Local TimeTemperatureDewpointHumidityBarometerVisibilityWind DirectionWind SpeedGust SpeedPrecipitationEventsConditions
1:00 AM75.7 °F70.7 °F84 %30.12 inSSW (210°)2.3 mph
2:00 AM74.0 °F71.0 °F86 %30.11 inWest (270°)2.3 mph
2:00 AM74.3 °F70.5 °F88 %30.11 inWest (270°)2.3 mph
3:00 AM75.0 °F71.2 °F88 %30.09 inWSW (250°)2.3 mph
4:00 AM74.7 °F70.9 °F88 %30.09 inWSW (240°)2.3 mph
5:00 AM73.0 °F69.8 °F90 %30.09 inSW (220°)1.2 mph
6:00 AM73.2 °F70.5 °F91 %30.08 inWest (280°)2.3 mph
7:00 AM72.5 °F69.8 °F91 %30.09 inCalm
8:00 AM77.0 °F71.0 °F78 %30.09 inNW (320°)3.5 mph
8:00 AM77.4 °F71.4 °F82 %30.09 inNW (320°)3.5 mph
9:00 AM81.7 °F72.5 °F74 %30.09 inWSW (250°)3.5 mph
10:00 AM84.7 °F72.1 °F66 %30.08 inWest (260°)3.5 mph
11:00 AM88.0 °F70.9 °F57 %30.07 inSW (230°)3.5 mph
12:00 PM91.0 °F67.8 °F46 %30.07 inWSW (250°)5.8 mph
1:00 PM91.8 °F67.8 °F45 %30.06 inWest (280°)9.2 mph
2:00 PM91.0 °F71.0 °F43 %30.04 inSW (220°)9.2 mph
2:00 PM90.7 °F71.4 °F53 %30.04 inSW (220°)9.2 mph
3:00 PM91.9 °F70.5 °F49 %30.03 inWSW (240°)8.1 mph
4:00 PM92.3 °F71.2 °F50 %30.01 inSW (220°)6.9 mph
5:00 PM90.7 °F72.0 °F54 %30.00 inSW (230°)6.9 mph
6:00 PM89.2 °F71.4 °F56 %29.97 inSW (230°)6.9 mph
7:00 PM85.8 °F70.7 °F60 %29.97 inSW (220°)9.2 mph
8:00 PM83.0 °F71.0 °F60 %29.97 inSSW (200°)5.8 mph
8:00 PM83.3 °F71.2 °F67 %29.97 inSSW (200°)5.8 mph
9:00 PM80.2 °F70.9 °F73 %29.94 inSSW (200°)4.6 mph
10:00 PM79.0 °F71.2 °F77 %29.94 inSSW (210°)4.6 mph
11:00 PM77.7 °F71.4 °F81 %29.94 inSSW (200°)3.5 mph
Hourly data recorded from CXDI, located miles away from Brantford, Ontario







STORIES FROM OUR PARTNERS